SCP
-0 -0 -0 -0 0 0 0 0 0 -0 0 0 -0 0 0 0 -0 -0 -0 -0 -0 -0 -0 -0 -0 -0 -0 -0 0 0 0 0 -0 -0 -0 0 0 -0 -0 -0 0 0 0 -0
0 -0 -0 0 0 0 0 0 -0 0 0 0 0 0 -0 0 -0 -0 -0 -0 -0 -0 -0 -0 0 0 0 0 0 0 0 -0 -0 -0 0 0 0 0 0 -0 -0 0 0 -0
-0 0 -0 -0 0 0 -0 0 -0 0 0 0 -0 -0 -0 -0 -0 0 -0 -0 -0 -0 -0 -0 -0 -0 0 0 0 0 -0 -0 -0 -0 -0 -0 0 0 -0 -0 0 0 0 0
0 0 -0 -0 -0 0 -0 0 0 0 0 0 0 -0 0 -0 -0 -0 -0 -0 -0 -0 -0 -0 -0 0 -0 0 0 0 0 0 -0 -0 -0 -0 -0 -0 -0 -0 -0 0 0 0
0 -0 -0 -0 -0 -0 -0 0 0 0 0 0 0 0 -0 0 -0 -0 -0 -0 -0 -0 -0 -0 -0 -0 -0 0 0 -0 0 -0 -0 -0 0 -0 -0 -0 -0 -0 -0 -0 0 -0
0 0 0 0 0 -0 0 0 0 0 0 -0 -0 -0 -0 -0 0 -0 0 0 0 0 -0 -0 -0 -0 -0 0 0 0 0 -0 -0 -0 -0 -0 -0 0 0 0 0 0 -0 0
0 0 0 0 0 0 0 0 0 0 0 -0 0 -0 -0 0 0 -0 0 -0 -0 0 0 -0 -0 -0 -0 -0 -0 -0 -0 -0 -0 -0 -0 -0 -0 -0 -0 0 0 0 0 0
0 0 0 0 0 0 -0 0 0 0 0 -0 0 -0 0 -0 -0 0 0 0 0 0 0 -0 -0 -0 -0 -0 -0 -0 -0 -0 -0 -0 -0 0 0 0 0 0 0 0 0 0
0 0 0 0 0 0 0 0 0 0 0 0 0 -0 -0 0 0 0 -0 0 0 -0 0 -0 -0 -0 -0 -0 -0 -0 -0 -0 -0 -0 0 0 0 0 0 0 0 0 0 0
0 0 0 0 0 0 0 0 0 0 -0 -0 0 0 -0 -0 0 0 0 0 0 0 0 -0 -0 -0 0 -0 -0 -0 -0 -1 -1 -1 -0 0 0 0 0 1 0 0 0 0
0 0 0 0 0 0 0 0 0 0 0 0 0 0 -0 -0 -0 0 0 0 0 0 0 0 0 0 -0 -0 -0 -0 -0 -0 -0 -1 -0 -0 -0 -0 0 1 1 1 1 0
0 0 0 0 0 0 0 0 0 0 0 0 0 0 0 -0 -0 0 0 0 0 0 0 0 0 0 0 0 -0 -0 -0 -0 -1 -0 -0 -0 -0 -0 -0 -0 0 1 1 1
0 0 0 0 0 0 0 0 0 0 0 -0 0 0 0 0 -0 -0 0 0 0 0 0 0 0 0 0 0 0 -0 -0 -0 -0 -0 -0 -0 -0 -1 -1 -1 -0 -0 0 0
0 0 0 0 0 0 0 0 0 0 0 0 -0 -0 0 0 0 0 0 0 0 0 -0 -0 0 0 0 0 0 0 0 0 0 0 -0 -0 -0 -1 -1 -0 -1 -0 -0 0
0 0 0 0 0 0 0 0 0 0 0 -0 -0 -0 -0 0 0 0 0 0 0 0 0 0 0 0 1 1 1 0 0 0 0 0 0 -0 -0 -0 -0 -1 -1 -1 -1 -0
0 0 0 0 0 0 0 0 0 0 0 0 0 -0 0 0 0 -0 -0 0 0 0 0 0 0 0 0 1 1 0 0 0 0 1 -0 0 0 0 -0 -1 -1 -1 -1 -0
0 0 0 0 0 0 0 0 0 0 0 0 0 0 0 -0 0 0 0 0 0 -0 0 0 0 0 1 1 1 0 0 0 1 1 1 0 1 1 0 -0 -0 -1 -1 -0
0 0 0 0 0 0 0 0 0 0 0 0 0 0 0 0 -0 0 0 0 0 0 0 0 0 0 0 0 0 1 1 1 1 1 2 1 0 0 1 1 1 -0 0 0
-0 0 0 0 0 0 0 0 0 0 0 0 0 0 0 0 0 0 0 0 0 0 0 0 0 0 0 0 0 1 1 1 1 1 0 0 0 1 1 1 1 1 2 1
-0 0 0 0 0 0 0 0 0 0 0 0 0 0 0 0 0 0 0 0 0 0 0 0 0 0 0 0 0 1 1 1 1 1 0 1 4 4 3 2 2 3 4 3
0 0 0 0 0 0 0 0 0 0 0 0 0 0 0 0 0 0 -0 0 0 0 0 0 0 0 0 0 0 0 1 1 0 1 1 2 3 4 4 4 4 3 2 2
0 0 0 0 0 -0 0 0 0 0 0 0 0 0 0 -0 -0 0 -0 -0 -0 0 0 0 0 0 0 0 1 1 1 1 2 2 2 3 3 2 2 3 3 3 3 3
0 0 0 0 0 0 0 0 0 0 0 0 0 0 0 0 -0 -0 -0 0 0 1 1 0 1 2 2 1 1 1 2 3 2 1 1 1 2 2 3 4 3 3 7 7
0 0 0 0 0 0 0 0 0 0 0 -0 -0 0 0 0 -0 -0 -0 -0 1 1 2 3 4 4 3 2 2 2 1 1 2 2 2 1 2 2 2 2 5 7 7 4
0 0 0 0 0 0 0 0 0 0 0 0 0 -0 -0 -0 -1 -0 -0 1 2 3 4 4 4 5 5 5 3 5 3 1 2 2 2 2 2 1 1 1 4 4 1 4
0 0 0 -0 0 0 0 0 0 0 0 -0 -0 0 -0 -1 -0 -0 2 3 4 3 4 4 3 3 3 3 4 3 3 2 1 1 1 1 1 1 2 1 0 0 0 0
Wind_Speed_500mb
37 26 43 48 37 31 15 24 20 20 11 17 27 28 23 38 58 55 58 63 65 71 65 60 64 61 61 68 66 62 62 62 61 62 62 60 56 55 51 43 35 35 30 26
17 48 41 31 31 35 36 34 35 21 13 7 12 20 13 31 54 64 64 66 70 62 59 64 66 65 68 75 71 66 63 61 62 65 64 64 58 58 53 43 38 36 34 29
50 15 39 37 33 38 46 48 35 16 4 7 11 28 13 23 35 48 59 64 60 68 71 68 71 75 74 79 78 75 69 65 64 64 63 66 63 61 57 57 50 46 40 33
41 37 48 49 51 44 45 36 34 32 17 21 12 28 13 23 34 37 51 60 69 68 66 69 72 73 80 86 80 78 74 72 67 67 69 71 68 65 61 59 56 52 47 44
34 48 41 52 53 46 40 28 31 30 26 25 27 15 28 9 24 38 50 65 70 74 73 74 78 90 93 88 86 84 78 77 75 73 77 74 73 65 56 53 50 50 53 53
38 17 47 33 41 45 23 26 16 9 19 31 42 28 34 27 32 32 49 61 67 70 76 73 73 73 79 77 82 86 86 83 82 81 79 81 77 73 67 59 53 49 49 51
41 27 30 37 33 39 40 36 15 20 21 31 30 28 40 18 35 39 40 67 74 78 75 77 73 71 80 85 90 92 91 89 87 87 86 84 79 76 73 64 57 55 50 48
38 31 40 39 40 25 56 45 17 29 29 26 15 28 27 34 44 51 47 58 65 65 72 78 82 81 91 94 92 94 93 91 89 89 92 88 84 82 75 70 67 58 56 51
37 38 23 39 29 42 34 48 46 21 3 8 25 29 21 19 40 36 49 45 51 67 75 83 87 93 102 102 100 94 94 93 92 90 89 92 89 87 83 72 62 64 55 55
11 13 24 52 35 48 31 36 23 27 27 24 17 23 25 39 36 41 37 46 55 59 65 72 79 89 101 105 106 103 97 93 93 90 88 90 92 89 85 78 69 64 63 57
4 10 10 32 44 46 21 38 23 22 19 17 16 18 20 32 40 42 44 58 56 58 65 70 79 89 98 98 100 108 107 101 97 95 90 91 94 98 93 87 76 69 62 62
8 5 21 33 25 42 49 37 46 23 26 27 12 15 3 23 23 34 49 56 57 60 64 67 68 73 72 91 98 107 108 106 104 101 96 93 92 92 95 92 84 77 71 67
10 7 22 14 23 18 44 44 46 42 22 36 24 11 16 13 11 21 28 38 36 44 44 52 48 61 78 88 96 101 100 101 100 102 105 104 101 99 98 93 88 85 79 74
7 1 19 25 12 6 10 21 50 50 34 33 41 32 21 11 17 24 35 44 33 37 34 46 54 59 68 80 89 94 96 92 92 95 97 102 102 103 98 90 90 88 86 82
9 2 8 10 14 12 18 20 21 33 44 46 44 49 39 33 28 23 29 25 32 37 29 43 49 50 60 71 83 87 88 94 93 93 93 92 91 95 97 94 91 89 92 88
12 2 4 15 19 20 27 27 27 28 33 32 43 50 15 29 53 55 56 56 41 49 49 48 52 49 50 64 76 80 86 92 94 95 92 88 91 92 90 89 90 90 94 94
8 4 5 12 14 25 31 43 34 29 26 30 43 36 28 34 26 38 54 59 58 48 45 43 44 44 42 44 53 72 81 88 95 96 93 94 92 92 91 92 91 92 95 96
8 8 5 9 5 19 20 7 12 26 34 41 45 38 31 34 49 56 71 65 68 78 76 76 75 73 68 61 60 59 73 82 89 92 92 94 95 94 94 93 93 95 97 101
34 18 8 10 24 32 35 14 7 9 26 13 33 42 38 49 54 52 54 70 92 94 90 84 76 64 67 67 66 68 73 79 81 83 87 87 88 92 95 96 94 95 100 104
28 28 14 11 16 24 4 19 28 9 30 13 6 14 28 42 30 23 49 73 87 90 89 80 69 65 48 52 60 66 72 76 76 75 81 83 88 91 95 93 94 97 97 102
11 15 32 28 21 17 21 12 2 23 2 10 11 19 28 22 32 45 58 53 68 61 57 55 56 53 52 50 49 57 63 69 60 63 70 77 80 83 84 78 72 64 64 61
13 13 14 23 20 41 16 29 22 10 16 27 35 35 39 43 58 57 73 63 53 52 46 48 52 50 48 38 37 51 59 57 63 63 61 66 70 66 58 68 61 50 60 64
13 20 11 18 15 28 27 38 63 50 46 53 47 57 47 58 61 58 53 40 39 36 39 43 45 41 39 38 33 42 49 51 48 39 38 41 44 46 52 51 45 36 76 87
17 24 16 24 33 44 65 78 65 56 56 54 49 59 56 65 64 59 46 37 36 32 32 31 35 35 27 23 24 23 24 23 24 25 25 27 32 37 41 42 45 48 58 67
23 13 17 30 39 50 67 68 81 68 61 66 58 55 65 56 63 48 37 38 37 37 39 39 39 48 47 40 35 30 23 16 15 22 23 24 30 30 36 41 46 52 59 64
41 38 24 26 31 33 44 38 35 55 63 61 45 68 50 42 33 36 46 49 51 50 50 52 49 50 50 41 37 32 27 22 16 14 14 14 17 23 29 32 36 43 46 51
Wind_Direction_500mb
189 194 208 212 218 227 232 233 237 246 214 217 224 235 241 198 204 205 194 193 199 206 204 205 208 210 211 213 211 211 213 214 212 212 212 211 214 209 215 223 226 220 229 234
172 220 207 201 203 218 226 236 235 248 258 264 231 246 244 202 208 206 198 198 204 203 204 205 207 210 213 215 215 214 212 213 213 213 213 214 214 215 221 221 221 222 227 232
201 189 198 197 203 212 223 226 222 242 332 232 266 262 224 214 219 210 213 209 206 204 202 205 207 210 213 216 218 217 214 214 213 214 213 213 216 223 226 227 224 224 229 237
222 209 191 200 212 206 224 222 236 242 251 247 212 265 226 213 208 209 212 209 210 208 210 208 208 213 215 219 220 221 221 219 218 215 215 214 217 222 228 232 233 231 231 238
202 200 192 208 207 202 222 200 212 232 240 257 226 250 244 199 215 214 214 214 214 211 210 209 209 215 216 219 222 222 223 224 222 220 220 222 224 229 235 235 235 234 238 242
205 206 193 201 209 200 191 186 163 196 233 241 238 231 249 216 210 218 218 219 218 214 214 215 217 216 221 221 223 226 226 226 226 227 226 227 229 231 233 235 234 234 239 241
205 193 197 194 184 197 195 174 179 216 217 238 223 228 242 238 214 218 210 217 218 213 213 216 217 215 221 222 228 228 228 226 227 228 230 230 231 233 236 237 236 235 236 234
195 208 192 188 202 184 200 199 206 213 230 237 194 235 234 224 230 229 231 223 218 215 215 216 219 222 229 232 231 230 231 229 228 229 231 232 233 235 237 238 239 237 236 239
202 216 191 177 188 183 185 210 210 244 128 249 224 246 261 234 219 215 217 216 213 213 215 218 220 224 232 235 235 233 232 232 231 230 232 234 234 234 236 237 236 238 238 239
189 204 198 192 180 197 190 174 180 213 227 233 212 240 239 194 206 215 213 212 217 218 219 222 222 221 230 235 238 239 236 236 234 232 231 235 237 236 236 237 235 234 235 234
275 238 145 170 201 185 183 192 203 205 223 226 243 239 209 215 209 205 212 217 216 216 221 222 223 227 230 230 233 239 239 235 236 236 235 235 238 238 237 237 237 234 234 233
33 250 212 205 192 209 200 192 197 204 196 226 269 248 260 228 221 222 221 220 222 218 224 228 226 227 222 224 226 236 239 240 237 235 236 235 237 240 239 237 237 235 234 232
360 233 197 212 210 202 219 212 203 218 236 213 212 195 234 243 232 212 229 245 238 238 235 229 228 221 226 230 228 231 235 238 241 237 235 236 237 239 240 239 238 237 234 234
309 26 256 219 213 28 218 216 212 219 228 225 226 236 227 277 241 258 256 259 252 238 231 233 235 237 241 236 234 234 236 235 236 237 236 234 235 238 239 239 237 237 236 235
11 353 333 307 303 301 267 258 236 232 238 233 241 238 232 254 279 290 290 283 271 263 244 236 232 237 241 239 236 237 239 234 231 234 237 239 240 237 239 240 237 236 234 234
358 307 325 300 293 285 277 256 252 247 245 253 257 260 287 260 241 248 261 279 274 277 262 252 249 250 243 241 239 237 236 235 233 235 238 240 240 239 237 237 236 235 235 233
317 290 248 252 312 312 272 245 244 245 238 236 242 249 251 248 236 247 252 247 255 264 271 260 245 251 256 258 251 239 238 235 235 235 240 240 242 242 240 236 233 232 231 231
243 221 222 267 250 242 255 310 264 261 254 233 245 252 249 248 248 239 253 251 257 259 263 265 269 271 267 263 252 247 238 238 239 239 238 240 242 244 242 238 236 233 230 229
217 225 222 228 227 278 294 252 254 248 256 284 265 250 242 251 258 254 244 248 252 257 261 262 267 273 271 260 255 243 235 237 240 242 243 243 243 244 244 242 239 236 232 230
207 222 236 191 241 238 237 245 264 235 267 193 334 287 268 258 249 253 254 253 255 255 258 262 259 265 254 246 250 242 236 235 238 241 245 246 247 245 245 248 245 241 238 236
164 205 219 227 246 256 270 280 11 215 185 326 291 294 294 273 261 263 274 266 263 263 255 253 248 252 255 251 241 237 233 234 243 248 249 250 251 252 252 248 247 245 247 245
214 197 200 224 243 241 250 263 243 338 316 311 309 305 293 281 279 273 269 272 273 268 245 235 233 244 246 241 235 229 229 235 239 245 252 254 255 253 241 243 247 258 262 257
246 224 224 222 225 258 282 292 293 296 296 300 303 300 298 294 279 277 277 274 252 234 231 228 225 223 225 230 228 227 228 230 237 245 250 251 249 248 243 248 232 233 249 239
261 261 245 251 250 262 271 281 280 284 291 296 294 288 291 283 279 272 263 235 227 212 202 190 187 184 177 184 188 192 205 215 223 236 241 242 241 238 234 225 230 236 235 238
248 249 255 273 267 270 271 268 272 284 274 279 289 281 286 279 273 255 222 208 188 173 164 158 145 133 124 120 119 117 119 135 187 205 208 207 220 225 229 226 221 222 224 230
234 238 225 247 263 271 271 287 292 279 270 264 270 283 273 254 233 192 172 162 153 146 142 134 123 118 116 116 114 115 115 115 129 150 163 180 200 210 217 227 226 225 236 245
Wind_Speed_850mb
37 26 43 48 37 31 15 24 20 20 11 17 27 28 23 38 58 55 58 63 65 71 65 60 64 61 61 68 66 62 62 62 61 62 62 60 56 55 51 43 35 35 30 26
17 48 41 31 31 35 36 34 35 21 13 7 12 20 13 31 54 64 64 66 70 62 59 64 66 65 68 75 71 66 63 61 62 65 64 64 58 58 53 43 38 36 34 29
50 15 39 37 33 38 46 48 35 16 4 7 11 28 13 23 35 48 59 64 60 68 71 68 71 75 74 79 78 75 69 65 64 64 63 66 63 61 57 57 50 46 40 33
41 37 48 49 51 44 45 36 34 32 17 21 12 28 13 23 34 37 51 60 69 68 66 69 72 73 80 86 80 78 74 72 67 67 69 71 68 65 61 59 56 52 47 44
34 48 41 52 53 46 40 28 31 30 26 25 27 15 28 9 24 38 50 65 70 74 73 74 78 90 93 88 86 84 78 77 75 73 77 74 73 65 56 53 50 50 53 53
38 17 47 33 41 45 23 26 16 9 19 31 42 28 34 27 32 32 49 61 67 70 76 73 73 73 79 77 82 86 86 83 82 81 79 81 77 73 67 59 53 49 49 51
41 27 30 37 33 39 40 36 15 20 21 31 30 28 40 18 35 39 40 67 74 78 75 77 73 71 80 85 90 92 91 89 87 87 86 84 79 76 73 64 57 55 50 48
38 31 40 39 40 25 56 45 17 29 29 26 15 28 27 34 44 51 47 58 65 65 72 78 82 81 91 94 92 94 93 91 89 89 92 88 84 82 75 70 67 58 56 51
37 38 23 39 29 42 34 48 46 21 3 8 25 29 21 19 40 36 49 45 51 67 75 83 87 93 102 102 100 94 94 93 92 90 89 92 89 87 83 72 62 64 55 55
11 13 24 52 35 48 31 36 23 27 27 24 17 23 25 39 36 41 37 46 55 59 65 72 79 89 101 105 106 103 97 93 93 90 88 90 92 89 85 78 69 64 63 57
4 10 10 32 44 46 21 38 23 22 19 17 16 18 20 32 40 42 44 58 56 58 65 70 79 89 98 98 100 108 107 101 97 95 90 91 94 98 93 87 76 69 62 62
8 5 21 33 25 42 49 37 46 23 26 27 12 15 3 23 23 34 49 56 57 60 64 67 68 73 72 91 98 107 108 106 104 101 96 93 92 92 95 92 84 77 71 67
10 7 22 14 23 18 44 44 46 42 22 36 24 11 16 13 11 21 28 38 36 44 44 52 48 61 78 88 96 101 100 101 100 102 105 104 101 99 98 93 88 85 79 74
7 1 19 25 12 6 10 21 50 50 34 33 41 32 21 11 17 24 35 44 33 37 34 46 54 59 68 80 89 94 96 92 92 95 97 102 102 103 98 90 90 88 86 82
9 2 8 10 14 12 18 20 21 33 44 46 44 49 39 33 28 23 29 25 32 37 29 43 49 50 60 71 83 87 88 94 93 93 93 92 91 95 97 94 91 89 92 88
12 2 4 15 19 20 27 27 27 28 33 32 43 50 15 29 53 55 56 56 41 49 49 48 52 49 50 64 76 80 86 92 94 95 92 88 91 92 90 89 90 90 94 94
8 4 5 12 14 25 31 43 34 29 26 30 43 36 28 34 26 38 54 59 58 48 45 43 44 44 42 44 53 72 81 88 95 96 93 94 92 92 91 92 91 92 95 96
8 8 5 9 5 19 20 7 12 26 34 41 45 38 31 34 49 56 71 65 68 78 76 76 75 73 68 61 60 59 73 82 89 92 92 94 95 94 94 93 93 95 97 101
34 18 8 10 24 32 35 14 7 9 26 13 33 42 38 49 54 52 54 70 92 94 90 84 76 64 67 67 66 68 73 79 81 83 87 87 88 92 95 96 94 95 100 104
28 28 14 11 16 24 4 19 28 9 30 13 6 14 28 42 30 23 49 73 87 90 89 80 69 65 48 52 60 66 72 76 76 75 81 83 88 91 95 93 94 97 97 102
11 15 32 28 21 17 21 12 2 23 2 10 11 19 28 22 32 45 58 53 68 61 57 55 56 53 52 50 49 57 63 69 60 63 70 77 80 83 84 78 72 64 64 61
13 13 14 23 20 41 16 29 22 10 16 27 35 35 39 43 58 57 73 63 53 52 46 48 52 50 48 38 37 51 59 57 63 63 61 66 70 66 58 68 61 50 60 64
13 20 11 18 15 28 27 38 63 50 46 53 47 57 47 58 61 58 53 40 39 36 39 43 45 41 39 38 33 42 49 51 48 39 38 41 44 46 52 51 45 36 76 87
17 24 16 24 33 44 65 78 65 56 56 54 49 59 56 65 64 59 46 37 36 32 32 31 35 35 27 23 24 23 24 23 24 25 25 27 32 37 41 42 45 48 58 67
23 13 17 30 39 50 67 68 81 68 61 66 58 55 65 56 63 48 37 38 37 37 39 39 39 48 47 40 35 30 23 16 15 22 23 24 30 30 36 41 46 52 59 64
41 38 24 26 31 33 44 38 35 55 63 61 45 68 50 42 33 36 46 49 51 50 50 52 49 50 50 41 37 32 27 22 16 14 14 14 17 23 29 32 36 43 46 51
Wind_Direction_850mb
189 194 208 212 218 227 232 233 237 246 214 217 224 235 241 198 204 205 194 193 199 206 204 205 208 210 211 213 211 211 213 214 212 212 212 211 214 209 215 223 226 220 229 234
172 220 207 201 203 218 226 236 235 248 258 264 231 246 244 202 208 206 198 198 204 203 204 205 207 210 213 215 215 214 212 213 213 213 213 214 214 215 221 221 221 222 227 232
201 189 198 197 203 212 223 226 222 242 332 232 266 262 224 214 219 210 213 209 206 204 202 205 207 210 213 216 218 217 214 214 213 214 213 213 216 223 226 227 224 224 229 237
222 209 191 200 212 206 224 222 236 242 251 247 212 265 226 213 208 209 212 209 210 208 210 208 208 213 215 219 220 221 221 219 218 215 215 214 217 222 228 232 233 231 231 238
202 200 192 208 207 202 222 200 212 232 240 257 226 250 244 199 215 214 214 214 214 211 210 209 209 215 216 219 222 222 223 224 222 220 220 222 224 229 235 235 235 234 238 242
205 206 193 201 209 200 191 186 163 196 233 241 238 231 249 216 210 218 218 219 218 214 214 215 217 216 221 221 223 226 226 226 226 227 226 227 229 231 233 235 234 234 239 241
205 193 197 194 184 197 195 174 179 216 217 238 223 228 242 238 214 218 210 217 218 213 213 216 217 215 221 222 228 228 228 226 227 228 230 230 231 233 236 237 236 235 236 234
195 208 192 188 202 184 200 199 206 213 230 237 194 235 234 224 230 229 231 223 218 215 215 216 219 222 229 232 231 230 231 229 228 229 231 232 233 235 237 238 239 237 236 239
202 216 191 177 188 183 185 210 210 244 128 249 224 246 261 234 219 215 217 216 213 213 215 218 220 224 232 235 235 233 232 232 231 230 232 234 234 234 236 237 236 238 238 239
189 204 198 192 180 197 190 174 180 213 227 233 212 240 239 194 206 215 213 212 217 218 219 222 222 221 230 235 238 239 236 236 234 232 231 235 237 236 236 237 235 234 235 234
275 238 145 170 201 185 183 192 203 205 223 226 243 239 209 215 209 205 212 217 216 216 221 222 223 227 230 230 233 239 239 235 236 236 235 235 238 238 237 237 237 234 234 233
33 250 212 205 192 209 200 192 197 204 196 226 269 248 260 228 221 222 221 220 222 218 224 228 226 227 222 224 226 236 239 240 237 235 236 235 237 240 239 237 237 235 234 232
360 233 197 212 210 202 219 212 203 218 236 213 212 195 234 243 232 212 229 245 238 238 235 229 228 221 226 230 228 231 235 238 241 237 235 236 237 239 240 239 238 237 234 234
309 26 256 219 213 28 218 216 212 219 228 225 226 236 227 277 241 258 256 259 252 238 231 233 235 237 241 236 234 234 236 235 236 237 236 234 235 238 239 239 237 237 236 235
11 353 333 307 303 301 267 258 236 232 238 233 241 238 232 254 279 290 290 283 271 263 244 236 232 237 241 239 236 237 239 234 231 234 237 239 240 237 239 240 237 236 234 234
358 307 325 300 293 285 277 256 252 247 245 253 257 260 287 260 241 248 261 279 274 277 262 252 249 250 243 241 239 237 236 235 233 235 238 240 240 239 237 237 236 235 235 233
317 290 248 252 312 312 272 245 244 245 238 236 242 249 251 248 236 247 252 247 255 264 271 260 245 251 256 258 251 239 238 235 235 235 240 240 242 242 240 236 233 232 231 231
243 221 222 267 250 242 255 310 264 261 254 233 245 252 249 248 248 239 253 251 257 259 263 265 269 271 267 263 252 247 238 238 239 239 238 240 242 244 242 238 236 233 230 229
217 225 222 228 227 278 294 252 254 248 256 284 265 250 242 251 258 254 244 248 252 257 261 262 267 273 271 260 255 243 235 237 240 242 243 243 243 244 244 242 239 236 232 230
207 222 236 191 241 238 237 245 264 235 267 193 334 287 268 258 249 253 254 253 255 255 258 262 259 265 254 246 250 242 236 235 238 241 245 246 247 245 245 248 245 241 238 236
164 205 219 227 246 256 270 280 11 215 185 326 291 294 294 273 261 263 274 266 263 263 255 253 248 252 255 251 241 237 233 234 243 248 249 250 251 252 252 248 247 245 247 245
214 197 200 224 243 241 250 263 243 338 316 311 309 305 293 281 279 273 269 272 273 268 245 235 233 244 246 241 235 229 229 235 239 245 252 254 255 253 241 243 247 258 262 257
246 224 224 222 225 258 282 292 293 296 296 300 303 300 298 294 279 277 277 274 252 234 231 228 225 223 225 230 228 227 228 230 237 245 250 251 249 248 243 248 232 233 249 239
261 261 245 251 250 262 271 281 280 284 291 296 294 288 291 283 279 272 263 235 227 212 202 190 187 184 177 184 188 192 205 215 223 236 241 242 241 238 234 225 230 236 235 238
248 249 255 273 267 270 271 268 272 284 274 279 289 281 286 279 273 255 222 208 188 173 164 158 145 133 124 120 119 117 119 135 187 205 208 207 220 225 229 226 221 222 224 230
234 238 225 247 263 271 271 287 292 279 270 264 270 283 273 254 233 192 172 162 153 146 142 134 123 118 116 116 114 115 115 115 129 150 163 180 200 210 217 227 226 225 236 245